国际通讯卫星 902星 (INTELSAT 902 (IS-902))

导读 | 星芒AI

INTELSAT 902(IS-902)是由波音公司制造的一颗地球静止轨道通信卫星,于2006年由阿丽亚娜5型火箭发射。该卫星由国际通信卫星组织(Intelsat)运营,主要提供跨大西洋和欧洲、非洲、中东及亚洲地区的宽带和广播服务。IS-902搭载C波段和Ku波段转发器,设计寿命为15年,旨在增强全球通信能力,支持电视传输、企业网络和政府通信等多种应用。

基本信息
目录编号:
26900
目录名称:
INTELSAT 902
国际标识:
2001-039A
轨道中心:
EARTH
卫星名称:
国际通讯卫星 902星
卫星全名:
国际通讯卫星 902星 (INTELSAT 902 (IS-902))
卫星状态:
在轨 (已飞行8826 天)
发射日期:
2001-08-30 UTC
国别 :
(ITSO)
星等 :
--
轨道信息
数据来源 国际轨道数据
星历时间: 2025-10-20T15:51:48+0800
轨道信息已过期8天
半长轴: 42164.953km
偏心率: 0.0004246
轨道倾角: 5.508°
近地点辐角 131.834°
升交点赤经 74.699°
平近点角 250.379°
近地点: 35768.914km
远地点: 35804.722km
周期: 1436.108分钟
每日圈数: 1.00271
详细信息
卫星平台:
SSL 1300HL
平衡模式:
三轴稳定
覆盖范围:
全球
运营商:
国际卫星通信公司
运营商所在国:
美国
制造商(研发单位):
劳拉空间系统公司
制造商所在国:
美国
使用方式:
暂无
卫星简介
从1965年4月至1984年3月,国际通信卫星组织发射了5代、6种不同性能的卫星共计35颗,除6颗卫星因运载火箭和远地点发动机故障而发射失败外,其余29颗卫星均被送到了预定的静止轨道位置。1984年8月前后,国际通信卫星组织利用部署在大西洋、太平洋、印度洋上空的15颗国际通信卫星,为遍布世界各地170多个国家或地区提供电话、电传、电报、电视和数据传输等电信业务;该卫星仍在工作。
2D轨道图
3D轨道图
轨道高度分析图
轨道倾角分析图
轨道综合分析图
查看轨道综合分析图